Location: Cran-Gévrier
(45.9039°N, 6.1012°E)
Time: 20:30:11
(UTC+00:00)

CZ-4B R/B - Pass Details

Date: 09 February 2023
Orbit: 809 x 881 km, 99.0° (Epoch: 22 March)

Event Time Altitude Azimuth Distance (km) Brightness Sun altitude
Rises 18:07:55 0° 153° (SSE) 3,347 6.1 -13.5°
Reaches altitude 10° 18:10:15 10° 150° (SSE) 2,428 5.4 -13.9°
Maximum altitude 18:15:33 63° 71° (ENE) 937 3.2 -14.9°
Drops below altitude 10° 18:21:00 10° 351° (N) 2,492 5.7 -15.8°
Sets 18:23:25 0° 349° (NNW) 3,443 6.5 -16.2°
